Theta_e
310 309 312 314 313 309 307 305 304 309 313 322 324 320 323 325 325 326 326 325 324 325 325 325 323 329 332 332 331 325 326 330 328 321 321 320 321 323 326 330 331 332 331 329 334
309 309 308 312 313 312 308 306 305 304 310 318 323 321 322 324 324 324 324 324 324 325 325 325 323 328 329 328 330 325 325 328 328 325 321 319 321 324 326 328 328 329 331 331 334
310 309 308 309 311 311 309 305 305 305 306 316 322 322 323 323 323 323 323 323 324 326 325 324 325 325 326 326 327 327 328 329 329 329 330 320 321 321 323 322 325 328 331 332 334
311 309 308 308 308 310 309 307 305 305 303 312 319 321 323 322 324 320 321 323 324 326 324 325 322 320 320 325 325 328 327 328 331 330 329 320 318 320 323 323 323 324 326 329 333
312 310 308 306 307 309 308 307 307 306 304 310 317 320 322 322 322 322 321 321 324 324 324 324 325 324 324 322 325 326 325 326 328 330 330 327 321 318 321 322 322 323 329 328 330
312 311 309 307 307 308 309 308 307 307 305 306 315 318 320 321 322 321 323 322 324 325 324 323 324 324 325 323 323 324 324 325 324 327 326 317 320 317 319 321 321 324 326 327 327
311 310 309 307 308 307 308 308 307 307 306 305 314 316 320 320 321 321 322 322 323 324 324 324 324 325 326 323 324 323 325 325 325 323 320 317 318 314 321 318 321 325 326 327 327
311 310 310 307 307 307 307 308 308 306 307 305 314 317 318 318 319 320 320 321 323 325 325 324 323 324 323 322 320 323 324 326 325 318 319 318 330 321 321 318 321 325 326 327 327
311 310 309 307 305 307 307 308 307 306 307 305 313 316 316 316 318 319 320 321 323 324 325 324 324 324 322 319 319 320 323 324 325 322 318 316 322 323 325 319 318 322 326 326 327
309 309 309 308 305 305 307 307 307 306 307 307 312 313 314 314 316 318 320 320 321 323 324 325 325 323 320 323 326 320 323 324 323 321 316 317 318 320 323 320 316 318 322 325 326
308 311 309 309 305 305 307 307 307 307 307 308 309 312 312 313 315 315 318 320 321 323 325 324 326 326 324 322 320 320 322 323 323 322 318 318 319 319 320 319 320 316 316 322 323
308 311 309 308 305 307 307 308 307 307 308 308 310 312 312 313 315 316 316 318 320 324 323 325 327 324 323 321 321 321 322 324 322 321 319 319 318 317 315 318 321 321 321 319 318
307 310 309 307 306 307 307 307 307 307 307 308 310 311 311 313 314 315 316 318 319 321 323 323 323 322 324 324 323 322 322 323 324 316 317 317 320 319 315 317 319 321 322 322 323
304 310 309 306 306 307 307 307 307 307 303 308 309 310 311 312 312 313 315 317 318 321 319 322 322 323 324 325 323 326 320 322 323 321 327 316 328 319 316 317 315 319 322 324 324
304 307 309 306 306 307 306 307 307 307 308 306 309 310 311 311 310 313 315 316 318 317 320 321 322 323 325 324 323 324 322 323 325 324 325 321 321 320 315 315 313 315 319 323 325
304 308 309 305 308 307 307 307 307 308 308 308 310 311 312 311 310 311 314 314 314 315 313 312 312 316 323 321 321 321 322 322 321 324 328 325 324 323 319 316 315 316 318 320 322
304 308 307 306 307 307 306 307 309 309 300 309 310 311 311 311 312 311 313 314 315 316 318 315 315 315 321 324 321 323 324 326 327 324 328 319 319 324 317 313 314 316 317 318 319
305 308 306 307 307 306 307 307 309 299 301 307 309 310 310 310 310 312 312 312 311 313 316 318 319 317 321 324 325 324 324 325 328 327 324 313 323 322 316 319 318 317 317 316 317
307 308 307 307 307 306 307 308 307 299 303 309 308 311 310 310 310 311 312 312 312 312 315 318 318 318 319 319 322 325 326 319 313 299 312 310 310 311 309 308 311 314 314 316 317
307 307 307 306 306 307 306 306 305 302 305 308 309 307 309 310 310 310 310 310 311 311 310 314 319 318 319 318 321 323 322 323 316 318 317 314 312 320 315 313 310 308 314 315 315
306 307 307 307 307 307 308 306 303 305 306 307 305 307 308 309 310 310 308 308 309 310 310 311 313 318 318 321 323 321 325 319 319 312 318 315 315 307 315 312 310 310 313 317 314
305 304 307 307 307 305 307 304 303 305 307 306 305 307 309 310 310 310 309 308 309 310 312 311 311 317 319 315 313 320 322 322 323 317 309 312 319 306 307 306 311 313 312 317 314
304 306 307 307 306 304 300 301 302 304 305 305 307 307 306 309 310 310 309 308 309 310 312 311 311 316 319 314 311 321 318 322 312 315 313 316 315 305 304 305 309 310 312 314 313
305 305 301 305 301 300 300 300 301 303 304 304 306 307 307 307 306 309 309 310 311 312 312 312 311 314 320 320 318 321 319 320 319 320 320 317 318 311 308 306 306 308 310 310 311
304 304 303 301 296 301 299 300 301 302 303 304 305 307 307 307 308 306 310 309 311 312 311 312 314 312 314 314 316 320 320 320 319 319 319 318 314 310 308 306 305 309 309 309 309
301 302 301 299 299 301 301 300 302 301 302 303 303 305 305 305 307 308 309 309 309 307 309 307 313 312 315 313 316 317 319 319 319 319 313 310 310 309 309 307 306 307 307 309 310
300 302 302 300 298 298 298 299 300 300 301 302 301 304 305 305 307 308 308 308 309 307 306 306 308 312 317 311 315 320 318 317 318 318 318 316 315 307 305 304 306 308 308 311 311
Wind_Speed
34 35 37 34 32 33 30 29 30 30 31 28 27 26 27 26 26 27 29 22 21 11 14 14 12 10 7 8 3 6 2 2 4 5 1 2 2 9 4 16 8 10 5 5 25
38 36 37 38 35 32 32 30 29 31 31 30 28 25 25 26 26 31 33 26 21 20 15 16 13 8 5 8 5 4 1 4 2 4 2 4 4 10 6 10 5 9 10 13 27
41 38 37 40 40 35 33 32 30 30 32 30 28 27 26 24 22 34 32 29 25 23 16 17 13 8 5 6 7 7 4 3 5 4 1 1 1 4 11 4 11 18 17 24 30
45 41 36 39 42 38 34 32 30 30 32 31 29 28 27 24 12 16 33 32 28 24 18 21 14 8 5 5 5 7 9 9 7 6 5 0 2 3 15 5 10 15 18 26 32
49 44 40 40 40 39 37 34 30 29 31 32 30 28 29 26 30 4 14 35 31 28 27 21 24 16 5 7 7 4 10 16 13 15 12 11 7 5 10 9 7 14 23 27 31
54 48 44 41 40 41 38 34 31 29 30 33 29 30 33 25 29 26 9 30 37 36 31 26 15 24 6 11 7 11 11 13 13 16 12 5 8 4 4 12 9 19 23 29 30
57 52 46 42 41 41 39 35 32 29 28 32 30 30 28 37 14 33 12 14 39 39 34 32 22 21 10 7 11 8 6 1 8 9 7 7 6 9 16 11 16 21 25 29 31
56 55 49 46 44 41 40 36 31 28 27 31 28 26 25 33 28 20 38 19 29 36 34 30 27 16 7 5 3 5 1 5 4 4 8 8 12 10 21 16 20 24 27 30 32
50 59 53 48 44 43 40 36 31 25 24 25 24 24 17 25 39 29 31 35 20 33 29 21 26 12 10 6 1 4 5 4 3 10 4 7 6 14 15 21 24 28 30 33 34
47 65 58 50 44 45 41 35 27 22 22 21 20 15 14 33 26 36 24 34 31 25 25 21 13 6 4 10 20 7 9 5 7 8 6 6 12 7 8 13 27 29 33 35 37
50 66 59 50 44 46 42 34 21 11 30 30 25 19 6 23 27 34 28 26 23 24 15 25 10 15 25 22 8 8 6 13 9 6 5 13 17 13 25 13 18 31 28 34 37
50 49 53 50 46 47 45 45 49 14 17 32 2 35 14 21 18 29 36 22 19 17 19 8 21 20 17 11 14 9 14 14 4 6 6 6 15 12 12 17 28 26 28 36 37
48 61 58 51 50 47 52 53 43 19 8 24 27 20 14 23 12 29 28 29 10 17 20 21 19 20 18 17 18 15 19 12 7 2 1 2 14 12 8 28 26 31 33 32 34
52 70 63 56 50 53 53 46 42 25 4 4 18 10 32 14 6 17 33 20 9 15 24 16 27 13 18 21 15 20 10 8 10 6 7 7 7 7 7 17 14 33 40 45 43
54 61 64 60 60 60 60 49 43 18 7 11 13 11 22 19 16 13 31 22 15 17 4 6 11 23 20 22 26 15 6 7 8 9 3 5 4 6 3 8 9 24 39 45 45
61 70 62 56 48 51 51 50 40 6 8 7 16 18 16 22 9 15 16 19 3 2 8 6 10 8 19 22 20 4 8 3 4 3 7 16 11 8 9 9 7 22 34 42 49
52 73 63 63 56 55 54 45 10 7 1 9 14 21 23 12 15 11 15 14 14 13 14 7 12 10 11 18 19 13 14 4 6 5 7 9 8 18 6 10 12 15 28 31 29
73 68 65 57 53 59 56 15 10 5 7 8 12 19 23 9 14 10 15 15 15 3 8 15 12 17 19 15 11 27 20 7 7 9 7 3 11 7 11 24 27 23 18 16 24
64 67 57 53 57 63 43 17 8 7 8 11 17 17 12 12 7 7 10 12 16 17 15 8 10 8 12 9 21 20 15 9 5 2 3 5 8 8 11 11 15 22 17 15 18
65 51 48 56 62 58 17 7 4 7 11 15 6 9 10 18 11 16 14 16 16 19 11 7 5 13 20 7 22 14 24 12 3 6 4 5 6 12 11 17 11 10 28 23 20
48 29 45 56 60 43 16 4 6 9 21 11 6 6 7 10 12 10 6 2 24 18 19 7 3 3 18 19 21 5 17 5 4 4 6 3 8 7 17 10 12 17 32 37 26
27 5 55 61 12 8 10 11 7 8 4 5 6 6 10 10 14 14 12 9 24 22 17 15 5 6 26 5 10 27 17 25 14 7 4 1 14 4 9 7 18 20 26 40 29
16 21 48 50 6 7 6 5 5 5 4 4 5 4 5 8 6 6 4 7 5 15 15 13 6 8 5 8 2 23 16 21 4 3 8 8 9 0 4 7 11 14 20 28 27
21 8 10 18 5 8 13 6 6 5 4 6 6 6 6 5 3 9 9 6 7 20 24 27 7 6 10 25 16 30 27 26 28 17 25 20 24 6 5 4 3 11 20 23 23
13 6 12 8 4 14 6 7 13 6 4 6 4 5 8 5 6 5 6 5 5 2 3 14 10 15 21 20 17 28 38 34 31 36 23 32 19 4 5 6 7 17 21 23 24
10 11 9 7 17 15 6 8 18 4 7 4 7 8 7 8 8 9 9 3 3 3 3 4 3 13 15 18 19 15 25 22 28 26 7 7 9 7 7 9 9 18 22 24 23
16 23 21 10 9 8 4 8 8 11 3 9 10 7 6 5 8 9 7 8 11 6 2 1 4 3 16 7 11 22 24 26 28 26 29 18 25 7 5 8 20 23 29 31 30
Wind_Direction
240 236 230 235 237 237 234 228 224 223 220 221 219 220 219 218 219 223 225 222 216 226 231 234 247 226 183 167 90 2 25 234 219 172 210 350 136 156 162 151 171 195 213 244 173
239 236 234 232 234 235 233 231 224 222 219 218 218 213 218 218 222 229 223 217 214 215 221 221 223 217 188 153 120 40 167 239 243 172 158 305 181 161 154 161 205 197 186 180 176
239 235 236 232 232 234 233 231 226 220 219 215 215 212 213 213 224 233 221 214 216 214 213 219 209 178 199 178 167 112 241 339 294 268 67 346 234 186 155 224 207 195 180 180 183
237 235 233 231 229 230 230 229 227 220 217 213 214 211 210 208 226 259 228 213 209 208 205 203 189 188 162 195 175 114 270 283 303 319 282 292 281 230 187 213 228 210 201 186 191
236 233 228 225 227 226 227 226 226 221 216 210 208 210 210 203 216 214 223 212 208 207 209 201 206 201 199 180 146 203 208 281 299 291 290 282 278 245 226 237 230 198 189 195 199
233 229 226 225 222 223 223 223 222 221 213 211 206 209 211 222 222 219 261 204 206 205 210 205 208 203 208 180 184 217 177 229 294 304 294 259 267 228 258 223 210 194 197 201 205
230 228 223 221 218 219 221 221 218 219 211 207 205 210 210 220 234 224 227 207 198 205 206 209 208 194 204 141 213 167 153 223 232 272 246 229 266 222 232 218 206 198 203 205 211
227 228 220 217 216 215 218 216 213 214 209 205 203 205 224 227 221 212 217 231 212 207 206 212 207 210 194 158 148 153 187 184 191 187 232 168 257 251 234 210 213 205 207 211 215
233 227 219 214 212 212 212 210 209 208 205 201 201 202 219 220 219 222 213 217 202 208 212 212 208 208 183 129 74 235 215 205 265 197 208 200 248 240 249 221 221 221 216 218 221
241 220 214 209 211 208 206 201 200 199 194 193 205 205 229 218 214 211 207 215 206 199 211 207 200 189 165 187 213 187 210 193 203 190 182 215 248 262 253 222 225 228 225 223 226
234 204 211 206 209 201 196 182 173 191 189 190 200 195 300 205 205 214 210 211 203 198 203 199 204 211 198 208 214 170 221 215 219 222 160 217 247 240 252 249 241 234 232 229 232
232 212 209 206 196 194 191 183 185 196 191 196 134 198 196 187 184 205 208 205 199 207 197 199 226 218 204 202 203 189 212 219 222 171 155 252 260 249 234 242 237 234 234 237 237
224 212 209 202 190 191 191 194 180 157 144 208 212 203 182 186 190 197 198 207 208 229 199 223 220 216 196 190 200 212 209 203 203 131 35 11 269 254 242 246 244 243 247 249 246
230 208 209 196 186 188 192 184 178 158 106 214 207 235 203 185 219 205 206 194 211 222 236 216 237 214 205 203 191 216 185 194 196 144 221 171 267 239 231 243 218 238 245 248 250
211 196 195 189 183 185 186 179 172 164 201 173 174 191 188 186 143 192 200 197 207 208 186 202 192 211 219 193 194 234 148 169 195 193 146 207 257 255 188 251 234 237 238 243 245
208 191 189 185 181 183 178 173 169 157 210 160 148 169 162 188 175 155 177 206 225 155 195 238 306 267 211 202 196 133 139 80 62 206 220 210 210 223 212 211 226 239 242 243 244
201 186 185 179 176 173 172 165 183 207 229 161 169 170 180 171 182 166 181 181 185 193 224 223 254 269 200 190 187 180 161 184 197 211 228 193 209 243 209 221 219 226 243 248 243
200 186 180 174 172 170 163 168 195 127 174 163 161 168 183 145 217 175 165 199 210 180 208 221 236 213 186 204 176 193 190 174 192 196 212 87 232 241 225 236 240 239 246 257 236
167 168 163 167 171 168 165 182 173 172 168 141 144 168 179 175 159 170 203 194 195 193 195 183 228 192 214 185 183 194 201 184 89 23 84 205 282 288 254 261 250 234 226 234 229
161 153 160 166 170 165 170 158 133 150 126 140 133 181 169 176 168 180 177 205 203 188 190 173 260 200 211 193 207 184 191 196 182 158 231 241 278 233 210 221 232 216 225 221 209
146 143 159 167 163 166 181 138 135 162 129 155 151 118 163 168 185 190 205 235 198 189 195 176 203 260 198 206 181 172 198 179 171 168 211 239 251 205 224 226 226 224 218 214 205
139 116 159 167 157 172 167 147 136 140 138 117 97 100 154 153 179 191 209 208 202 176 193 194 171 230 214 199 229 199 193 193 195 201 223 240 251 150 245 282 245 228 213 210 211
114 114 155 164 158 142 132 120 100 128 138 122 117 139 159 144 131 181 171 260 220 186 190 155 202 252 203 252 286 197 209 193 156 202 211 213 253 70 315 263 226 201 205 202 209
127 130 117 165 116 125 136 130 110 95 93 105 115 91 116 143 157 163 198 203 224 206 217 167 171 217 239 215 183 191 199 194 200 207 220 219 239 267 295 286 257 196 192 191 194
118 117 148 150 187 144 108 143 135 132 103 132 65 154 146 138 169 200 175 152 213 201 305 178 188 204 242 270 199 209 196 197 197 213 208 227 233 207 251 236 234 203 188 188 187
109 145 97 103 116 133 126 178 161 117 133 184 133 178 169 146 184 187 166 148 178 76 276 337 215 176 230 239 208 216 207 198 208 212 245 172 246 196 209 176 186 207 192 190 192
122 140 125 129 134 125 168 156 165 128 42 141 144 149 178 159 128 130 142 160 161 159 147 326 16 239 222 192 231 211 198 196 208 208 214 209 223 163 187 194 193 198 201 200 202